Flag for Canada Weather past 2 weeks in Fort Smith, Northwest Territories, Canada

Now
77 °F

Scattered clouds.


Feels Like: 77 °F
Forecast: 47 / 58 °F
Wind: 9 mph from West

Location: Fort Smith

Current Time: Jul 5, 2015 at 7:55:58 PM

Latest Report: Jul 5, 2015 at 7:00 PM


Visibility: 12 mi

Pressure: 30.00 "Hg

Humidity: 26%

Dew point: 39 °F

Location of Fort SmithLocation

Historic Weather in Fort Smith — Graph

°F

Fort Smith temperature yesterday

Maximum temperature yesterday: 68 °F (at 5:00 PM)
Minimum temperature yesterday: 48 °F (at 3:00 AM)
Average temperature yesterday: 59 °F

Past Weeks' High & Low Weather Summary

 TemperatureHumidityPressure
High84 °F (Jun 27, 2:00 PM)100% (Jul 4, 3:00 AM)30.13 "Hg (Jul 4, 3:00 AM)
Low39 °F (Jun 21, 5:00 AM)23% (Jun 27, 4:00 PM)29.53 "Hg (Jul 3, 8:00 AM)
Average66 °F57%29.85 "Hg
* Reported Jun 20 6:00 PM — Jul 5 6:00 PM, Fort Smith, Weather by CustomWeather, © 2015

Note: Actual official high and low records may vary slightly from our data, if they occured in-between our weather recording intervals... More about our weather records

Advertising

Fort Smith weather history for previous 24 hours

 ConditionsComfort  
Time TempWeatherWind HumidityBarometerVisibility
6:00 PM
Sun, Jul 5
75 °FScattered clouds.5 mph29%30.02 "Hg15 mi
5:00 PM75 °FPassing clouds.5 mph27%30.03 "Hg15 mi
4:00 PM75 °FBroken clouds.5 mph29%30.05 "Hg15 mi
3:00 PM75 °FPartly sunny.8 mph31%30.06 "Hg15 mi
2:00 PM73 °FMild.5 mph33%30.08 "Hg15 mi
1:00 PM72 °FPartly sunny.7 mph36%30.09 "Hg15 mi
12:00 PM70 °FPartly sunny.3 mph40%30.11 "Hg15 mi
11:00 AM68 °FScattered clouds.7 mph46%30.12 "Hg15 mi
10:00 AM66 °FScattered clouds.6 mph49%30.13 "Hg15 mi
9:00 AM63 °FScattered clouds.3 mph59%30.13 "Hg15 mi
8:00 AM57 °FPassing clouds.No wind77%30.13 "Hg15 mi
7:00 AM52 °FPassing clouds.No wind88%30.13 "Hg15 mi
6:00 AM48 °FPassing clouds.No wind82%30.13 "Hg15 mi
5:00 AM45 °FClear.No wind93%30.12 "Hg15 mi
4:00 AM46 °FClear.No wind87%30.11 "Hg15 mi
3:00 AM48 °FPassing clouds.No wind82%30.11 "Hg15 mi
2:00 AM50 °FPassing clouds.2 mph82%30.11 "Hg15 mi
1:00 AM52 °FPassing clouds.No wind82%30.10 "Hg15 mi
12:00 AM54 °FPassing clouds.No wind77%30.09 "Hg15 mi
11:00 PM
Sat, Jul 4
57 °FPassing clouds.No wind67%30.07 "Hg15 mi
10:00 PM64 °FScattered clouds.3 mph49%30.05 "Hg15 mi
9:00 PM66 °FBroken clouds.9 mph46%30.04 "Hg15 mi
8:00 PM68 °FPartly sunny.13 mph38%30.02 "Hg15 mi
7:00 PM66 °FPartly sunny.10 mph43%30.01 "Hg15 mi
Weather by CustomWeather, © 2015

See weather overviewHow to use our weather pages